Kalamazoo, MI (49001)

4:54 AM EST on February 13, 2016 (GMT -0500)
Lawndale Ave | | Change Station
CLOSE
Current Station
Personal Weather Station
Location: Kalamazoo, MI
Elevation: 801 ft
Nearby Weather Stations

Elev 801 ft 42.28 °N, 85.48 °W | Updated 17 seconds ago

Partly Cloudy
Partly Cloudy
-1.3 °F
Feels Like -1 °F
N
0.0
Wind Variable Wind from West
Gusts 0.0 mph

Today
High -- | Low -- °F
--% Chance of Precip.
Yesterday
High -- | Low -- °F
Precip. -- in
Pressure 30.45 in
Visibility 10.0 miles
Clouds Few 6000 ft
Windchill -1 °F
Dew Point -12 °F
Humidity 60%
Rainfall 0.00 in
Snow Depth Not available.
7:41 AM 6:11 PM
Waxing Crescent, 29% visible
METAR KAZO 130853Z AUTO 25005KT 10SM FEW060 M21/M24 A3038 RMK AO2 UPB0757E06 SLP310 P0000 60000 T12111239 52018
Pressure 30.45 in
Visibility 10.0 miles
Clouds Few 6000 ft
Windchill -1 °F
Dew Point -12 °F
Humidity 60%
Rainfall 0.00 in
Snow Depth Not available.
7:41 AM 6:11 PM
Waxing Crescent, 29% visible
METAR KAZO 130853Z AUTO 25005KT 10SM FEW060 M21/M24 A3038 RMK AO2 UPB0757E06 SLP310 P0000 60000 T12111239 52018

10-Day Weather Forecast

Almanac

Astronomy

Feb. 13, 2016 Rise Set
Actual Time
Civil Twilight
Nautical Twilight
Astronomical Twilight
Moon
Length of Visible Light
Length of Day
Tomorrow will be .
, % of the Moon is Illuminated

Today's Extremes

State Highs State Lows

Community

WunderPhotos

Upload Photos

1,892,536 photos uploaded!

WunderBlog® & News

Nearby

Air Quality

  Air Quality AQ Index Pollutant
Not available.

Snow Depth

Station Depth Elevation

Earthquake Activity

City Distance Mag. Time & Date
Minimum magnitude displayed is 2.5.

Coastal Water Temperatures

Place Temperature

Stations

Nearby Weather Stations

Station Location Temp. Windchill Dew Point Humidity Wind Precip. Elev Updated Type
                   

Watches & Warnings

There are currently no watches in effect.